STARLINK-32843, 62814

Orbit data source: Space-Track

STARLINK-32843, 62814 is a payload satellite owned by SpaceX/Seattle (US) in LEO that was launched on Fri, 24 Jan 2025 UTC via an FALCON 9 launch vehicle from the Air Force Western Test Range (AFWTR). Payloads include a variety of satellites, spacecraft, and rockets equipped with specific instruments for various scientific and technological missions. These include communications satellites like Starlink; space stations such as the ISS; scientific satellites like the Hubble; Earth observation satellites from companies like Planet Labs, Umbra, and HawkEye 360; GPS; miniature CubeSats for education and research; and military/defense satellites.

Loading next visibility...
STARLINK-32843 details
Identifier
62814, 2025-018J
Orbit
LEO
Last TLE update8 hours ago
Origin
Flag of USSpaceX/Seattle (US)
ManufacturerSpaceX/Seattle
MissionOperational spacecraft
Bus & MotorSTARLINK V2M, Unknown motor
Mass730 kg wet, ~700 kg dry
Launch date (UTC)
2025-01-24 (3 weeks ago)
Launch vehicle
FALCON 9
Launch site
Air Force Western Test Range (AFWTR)
Object type
Payload
Rocket body
Debris
Shape & HBRUnknown
Radar Cross SectionLarge (>1 m²)

Expand to show TLE details & history

TLE from 8 hours ago
0 STARLINK-32843
1 62814U 25018J   25047.16668981 -.01585506  00000-0 -25151-1 0  9997
2 62814  53.1589 312.5193 0000981  73.3115 279.8210 15.55642102  4796
Epoch: 2025-02-16T04:00Z
Definitive object data (Epoch: 2025-02-16T04:00:01.999Z)
Latitude-5.61489°
Longitude101.90684°
Altitude401.983 km
Speed7.67 km/s
True Right ascension20h 33m 16s
True Declination-5° 34' 47"
Sunlit
Object was in daylight at TLE epoch
Visualization TLE readout
Latitude19.53287°
Longitude119.85587°
Altitude403.538 km
Speed7.672 km/s
Apparent Right ascension23h 48m 47s
Apparent Declination-11° 16' 12"
Sunlit
Object is in daylight
Visualization observer readout
Local Sidereal Time14:37:18
Azimuth64.286° ENE
Elevation-43.098°
Doppler factor1
Orbital elements
Apogee altitude401.211 km
Perigee altitude399.881 km
Semi-major axis6,778.683 km
Eccentricity0.0000981
Inclination53.1589°
RAAN312.5193°
Arg. of periapsis73.3115°
True anomaly279.80992°
Mean anomaly279.821°
Eccentric anomaly279.81546°
Mean motion3.88889 °/min
BSTAR-0.025151
Orbital period92.57 mins
Loading maneuver chart data...
Loading historical data...
Loading historical data...
Loading historical data...
Loading historical data...
Loading historical data...
Loading historical data...
Loading historical data...

STARLINK-32843 Visibility forecast

Observer location: undefined°, undefined

Span
Click to sort rows by Start time (UTC) header in descending order
Start Az.
Max El. time (UTC)
Max El. Az.
Max El.
End time (UTC)
End Az.
5 mins2025-02-16 19:36:52.304Z193.724° SSW2025-02-16 19:39:52.304Z126.055° SE25.379°2025-02-16 19:41:52.304Z77.796° E
4 mins2025-02-16 21:14:52.304Z290.62° WNW2025-02-16 21:15:52.304Z321.496° NNW25.572°2025-02-16 21:18:52.304Z30.886° NE
4 mins2025-02-17 02:06:52.304Z346.691° N2025-02-17 02:08:52.304Z43.402° NE22.954°2025-02-17 02:10:52.304Z85.051° E
4 mins2025-02-17 03:43:52.304Z266.543° W2025-02-17 03:44:52.304Z230.111° WSW29.19°2025-02-17 03:47:52.304Z160.438° S
|